GEFSSE_prec_meanprecacc_258.txt.gz
Total_Precipitation_Accumulation
1.90 2.04 3.11 3.19 2.70 2.45 2.54 2.44 2.38 2.35 2.31 2.28 2.16 2.04 1.96 1.78 1.53 1.39 1.23 1.12 1.06 1.11 1.08 1.04 1.04 0.95 0.85 0.75 0.79 0.91 0.95 1.09 1.13 1.13 1.25 1.31 1.31 1.47 1.63 1.88 2.12 2.31 2.09
1.61 1.98 3.09 3.12 2.64 2.24 2.23 2.22 2.29 2.27 2.23 2.16 2.04 2.03 1.84 1.71 1.56 1.36 1.18 1.12 1.05 1.11 1.19 1.23 1.16 1.02 0.87 0.81 0.88 0.99 0.99 1.07 1.17 1.24 1.47 1.60 1.59 1.64 1.51 1.66 1.95 2.23 2.08
1.55 1.77 2.38 2.83 2.59 2.20 2.06 2.13 2.22 2.14 2.12 2.08 2.00 2.04 1.71 1.58 1.53 1.41 1.27 1.22 1.18 1.14 1.21 1.33 1.32 1.21 1.02 0.97 1.03 1.12 1.17 1.18 1.22 1.33 1.88 2.60 2.00 1.76 1.78 1.87 2.01 1.97 1.98
1.52 1.57 1.92 2.58 2.44 2.17 2.09 2.17 2.20 2.13 2.10 2.12 2.01 1.83 1.56 1.51 1.49 1.47 1.44 1.37 1.26 1.16 1.21 1.32 1.37 1.30 1.17 1.10 1.11 1.16 1.30 1.32 1.38 1.45 1.85 2.46 2.38 2.03 1.88 1.95 2.02 1.88 1.94
1.44 1.56 2.06 2.44 2.27 2.09 1.92 1.96 2.08 2.06 2.04 2.08 1.98 1.71 1.49 1.37 1.36 1.40 1.45 1.39 1.29 1.23 1.18 1.23 1.23 1.20 1.20 1.11 1.10 1.14 1.20 1.26 1.46 1.39 1.64 2.19 2.61 2.19 1.79 1.93 2.09 1.96 1.97
1.34 1.46 1.83 2.17 2.14 1.99 1.80 1.83 1.75 1.69 1.74 1.86 1.78 1.59 1.43 1.43 1.37 1.38 1.38 1.31 1.29 1.25 1.18 1.14 1.10 1.08 1.07 1.01 1.01 1.07 1.16 1.23 1.28 1.41 1.75 2.25 2.53 2.15 1.74 1.82 2.06 2.18 2.21
1.29 1.27 1.49 1.80 1.86 1.84 1.81 1.73 1.69 1.56 1.62 1.65 1.59 1.50 1.41 1.40 1.37 1.34 1.24 1.11 1.10 1.15 1.14 1.15 1.11 1.03 0.98 0.94 0.97 1.01 1.12 1.05 1.07 1.43 1.73 2.15 2.13 1.93 1.65 1.78 2.11 2.35 2.40
1.28 1.17 1.25 1.50 1.57 1.48 1.50 1.71 1.75 1.52 1.58 1.56 1.43 1.40 1.38 1.30 1.27 1.23 1.07 1.03 1.05 1.13 1.16 1.10 1.07 1.00 0.98 0.96 1.01 1.06 1.14 0.90 0.80 1.10 1.43 1.93 2.18 2.02 1.67 1.68 1.94 2.15 2.34
1.39 1.23 1.15 1.11 1.18 1.31 1.49 1.52 1.47 1.50 1.63 1.57 1.36 1.29 1.30 1.13 1.02 0.98 1.00 1.07 1.07 1.15 1.18 1.10 1.02 0.98 1.01 1.06 1.09 1.08 1.07 0.91 0.85 1.08 1.19 1.71 2.16 2.08 1.74 1.65 1.79 1.92 2.13
1.24 1.11 0.99 0.91 0.96 1.05 1.20 1.33 1.35 1.37 1.46 1.43 1.31 1.29 1.30 1.06 0.92 0.95 1.01 1.18 1.19 1.19 1.25 1.18 1.04 0.99 1.00 1.04 1.02 0.91 0.85 0.75 0.79 0.96 1.33 1.59 2.23 2.21 1.84 1.63 1.62 1.66 1.73
1.06 0.98 0.91 0.82 0.85 0.92 0.99 1.04 1.18 1.23 1.27 1.18 1.07 1.10 1.01 0.80 0.78 0.88 0.94 1.26 1.39 1.45 1.42 1.33 1.23 1.11 1.02 0.98 0.96 0.83 0.65 0.62 0.81 0.97 1.31 1.77 2.21 2.18 1.82 1.59 1.57 1.46 1.42
1.04 0.95 0.86 0.85 0.83 0.81 0.81 1.07 1.22 1.06 0.99 0.89 0.91 0.88 0.86 0.88 0.93 0.81 0.91 1.18 1.18 1.22 1.26 1.24 1.24 1.10 0.88 0.74 0.76 0.72 0.58 0.67 0.78 0.87 1.21 1.87 2.18 2.19 1.91 1.62 1.45 1.35 1.29
1.01 0.91 0.80 0.83 0.76 0.70 0.80 0.96 1.14 1.18 1.15 1.10 0.96 0.95 0.91 0.84 0.79 0.68 0.69 0.80 0.84 0.92 0.91 1.01 1.04 0.88 0.72 0.68 0.68 0.61 0.58 0.65 0.76 0.87 1.27 1.99 2.29 2.27 2.10 1.78 1.55 1.43 1.39
0.93 0.95 0.81 0.78 0.70 0.61 0.58 0.66 0.82 0.87 0.88 0.89 0.90 0.84 0.85 0.90 0.88 0.76 0.76 0.82 0.86 0.85 0.95 0.98 1.01 0.90 0.74 0.62 0.59 0.62 0.66 0.69 0.81 1.02 1.34 1.88 2.25 2.34 2.34 2.08 1.86 1.67 1.56
0.94 0.91 0.86 0.81 0.75 0.75 0.71 0.64 0.61 0.65 0.71 0.76 0.85 0.77 0.72 0.78 0.87 0.85 0.82 0.90 0.89 0.91 0.97 0.94 0.82 0.83 0.77 0.65 0.63 0.65 0.73 0.75 0.89 1.01 1.21 1.58 2.08 2.60 2.70 2.52 2.17 1.93 1.87
0.87 0.94 0.92 0.84 0.81 0.74 0.69 0.69 0.69 0.66 0.68 0.71 0.79 0.73 0.65 0.66 0.71 0.82 0.84 0.93 0.90 0.95 1.03 0.91 0.85 0.87 0.85 0.73 0.67 0.71 0.73 0.75 0.84 0.99 1.12 1.34 1.64 2.19 2.71 2.82 2.58 2.29 2.09
0.75 0.86 0.93 0.91 0.90 0.80 0.73 0.74 0.76 0.74 0.68 0.70 0.75 0.67 0.62 0.67 0.68 0.81 0.89 0.93 0.93 0.95 0.97 0.99 0.98 0.92 0.84 0.77 0.77 0.75 0.73 0.77 0.94 1.05 1.09 1.24 1.28 1.39 1.94 2.60 2.85 2.74 2.51
0.73 0.75 0.84 0.84 0.88 0.87 0.83 0.83 0.81 0.76 0.75 0.77 0.79 0.74 0.69 0.68 0.73 0.94 1.01 0.92 0.97 1.08 1.13 1.17 1.14 1.05 0.97 0.96 0.98 0.93 0.85 0.91 1.09 1.17 1.11 1.07 1.11 1.05 1.21 1.59 1.99 2.31 2.61
0.70 0.69 0.70 0.74 0.93 0.94 0.89 0.95 0.94 0.91 0.98 1.00 0.97 0.94 0.87 0.84 0.92 1.10 1.19 1.10 1.08 1.25 1.25 1.15 1.19 1.25 1.20 1.23 1.16 1.16 1.10 1.09 1.12 1.06 1.06 1.12 1.17 1.15 1.18 1.08 1.24 1.53 2.10
0.65 0.63 0.65 0.70 0.83 0.94 1.06 1.13 1.20 1.20 1.21 1.33 1.38 1.34 1.16 1.11 1.16 1.32 1.43 1.40 1.35 1.50 1.52 1.40 1.53 1.59 1.50 1.55 1.43 1.34 1.27 1.22 1.18 1.15 1.14 1.23 1.34 1.24 1.26 1.16 1.12 0.99 1.27
0.56 0.54 0.60 0.73 0.88 1.02 1.13 1.24 1.47 1.63 1.73 1.72 1.71 1.76 1.67 1.47 1.55 1.68 1.66 1.90 1.96 1.95 1.98 1.93 2.10 2.16 1.88 1.73 2.08 2.02 1.60 1.31 1.19 1.25 1.33 1.38 1.49 1.51 1.45 1.39 1.32 1.12 1.04
0.47 0.49 0.56 0.70 0.92 1.13 1.32 1.48 1.65 1.96 2.11 2.10 2.15 2.07 2.00 1.88 1.90 1.83 1.92 2.16 2.22 2.34 2.45 2.30 2.46 2.56 2.25 1.95 2.40 2.87 2.43 1.97 1.38 1.14 1.25 1.41 1.58 1.62 1.54 1.43 1.42 1.37 1.27
0.33 0.39 0.48 0.59 0.81 1.12 1.41 1.63 1.80 2.01 2.25 2.33 2.23 2.19 2.20 2.26 2.30 2.18 2.14 2.28 2.33 2.43 2.66 2.70 2.65 2.78 2.72 2.36 2.32 2.86 2.83 2.46 2.03 1.49 1.31 1.38 1.56 1.68 1.73 1.72 1.57 1.55 1.46
0.33 0.37 0.46 0.58 0.72 0.94 1.22 1.53 1.78 2.03 2.31 2.36 2.31 2.29 2.32 2.40 2.46 2.40 2.35 2.44 2.48 2.48 2.61 2.67 2.65 2.91 3.14 2.88 2.57 2.34 2.30 2.34 2.38 1.99 1.57 1.42 1.56 1.67 1.81 1.76 1.79 1.85 1.81
0.39 0.44 0.55 0.67 0.77 0.94 1.18 1.50 1.82 2.01 2.19 2.37 2.36 2.24 2.17 2.22 2.21 2.16 2.28 2.44 2.47 2.48 2.50 2.67 2.79 3.00 3.04 3.00 2.86 2.69 2.51 2.35 2.00 2.08 1.99 1.72 1.67 1.60 1.73 1.91 1.98 2.04 1.98
0.50 0.59 0.71 0.81 0.97 1.09 1.17 1.29 1.45 1.65 1.94 2.08 2.19 2.20 2.20 2.18 2.05 1.95 2.05 2.14 2.24 2.32 2.32 2.38 2.54 2.71 2.92 3.06 3.00 2.83 2.77 2.70 2.48 2.31 2.01 1.85 1.91 1.75 1.65 1.70 1.82 1.92 2.06

GEFSSE_prec_meanprecacc_264.txt.gz
Total_Precipitation_Accumulation
1.95 2.07 3.15 3.25 2.78 2.54 2.63 2.50 2.43 2.40 2.36 2.31 2.19 2.09 2.01 1.83 1.60 1.45 1.27 1.17 1.12 1.17 1.15 1.11 1.12 1.03 0.93 0.84 0.88 0.99 1.00 1.13 1.17 1.16 1.28 1.34 1.34 1.50 1.67 1.93 2.21 2.39 2.14
1.66 2.03 3.13 3.18 2.72 2.34 2.34 2.31 2.36 2.33 2.28 2.19 2.07 2.06 1.88 1.77 1.62 1.41 1.22 1.17 1.10 1.18 1.28 1.31 1.22 1.08 0.93 0.88 0.94 1.05 1.03 1.11 1.21 1.28 1.52 1.66 1.64 1.68 1.57 1.75 2.06 2.32 2.15
1.59 1.80 2.42 2.87 2.65 2.27 2.13 2.21 2.30 2.22 2.17 2.12 2.03 2.07 1.74 1.62 1.58 1.45 1.31 1.27 1.25 1.29 1.32 1.38 1.38 1.25 1.07 1.01 1.06 1.15 1.20 1.21 1.26 1.38 1.96 2.72 2.07 1.80 1.87 1.97 2.11 2.06 2.08
1.55 1.60 1.95 2.64 2.50 2.22 2.14 2.23 2.27 2.20 2.16 2.15 2.05 1.87 1.60 1.55 1.53 1.51 1.50 1.43 1.32 1.31 1.39 1.42 1.44 1.34 1.22 1.13 1.14 1.18 1.32 1.36 1.44 1.52 1.94 2.58 2.47 2.07 1.93 2.03 2.13 1.96 2.02
1.46 1.58 2.09 2.48 2.32 2.14 1.97 2.02 2.13 2.12 2.08 2.11 2.02 1.75 1.54 1.40 1.38 1.44 1.50 1.44 1.35 1.33 1.30 1.32 1.29 1.24 1.23 1.15 1.12 1.16 1.22 1.30 1.51 1.42 1.71 2.29 2.70 2.24 1.82 1.97 2.16 2.03 2.04
1.36 1.48 1.83 2.19 2.17 2.04 1.85 1.89 1.80 1.74 1.78 1.89 1.82 1.62 1.45 1.46 1.40 1.43 1.43 1.36 1.33 1.30 1.24 1.19 1.15 1.12 1.10 1.03 1.03 1.10 1.19 1.26 1.31 1.46 1.82 2.34 2.60 2.20 1.77 1.85 2.11 2.23 2.28
1.31 1.28 1.50 1.82 1.89 1.88 1.86 1.80 1.74 1.61 1.66 1.68 1.61 1.52 1.43 1.44 1.43 1.40 1.28 1.16 1.15 1.20 1.18 1.19 1.15 1.06 1.00 0.96 0.99 1.04 1.15 1.08 1.10 1.47 1.79 2.23 2.19 1.99 1.69 1.81 2.16 2.42 2.48
1.30 1.19 1.26 1.52 1.59 1.52 1.55 1.78 1.81 1.55 1.62 1.59 1.47 1.42 1.41 1.34 1.34 1.30 1.12 1.08 1.11 1.19 1.20 1.13 1.10 1.02 1.00 0.99 1.04 1.08 1.17 0.92 0.81 1.12 1.47 2.00 2.24 2.08 1.72 1.72 2.00 2.22 2.44
1.40 1.25 1.16 1.12 1.19 1.34 1.54 1.58 1.50 1.53 1.66 1.60 1.39 1.33 1.35 1.18 1.08 1.05 1.06 1.13 1.13 1.20 1.21 1.13 1.05 1.00 1.04 1.10 1.13 1.12 1.10 0.94 0.87 1.11 1.23 1.77 2.22 2.13 1.80 1.71 1.85 1.99 2.21
1.25 1.12 1.01 0.92 0.97 1.06 1.22 1.36 1.38 1.40 1.49 1.47 1.36 1.36 1.37 1.13 0.97 1.01 1.06 1.24 1.24 1.22 1.28 1.20 1.06 1.01 1.05 1.13 1.08 0.98 0.92 0.79 0.81 0.98 1.37 1.64 2.29 2.26 1.88 1.68 1.67 1.72 1.79
1.07 1.00 0.92 0.82 0.85 0.93 1.00 1.06 1.20 1.25 1.29 1.21 1.10 1.14 1.05 0.84 0.81 0.91 0.97 1.29 1.42 1.48 1.43 1.35 1.25 1.13 1.08 1.05 1.00 0.88 0.73 0.66 0.83 1.00 1.35 1.82 2.26 2.23 1.87 1.63 1.61 1.52 1.47
1.08 0.97 0.87 0.86 0.83 0.83 0.82 1.08 1.25 1.09 1.01 0.92 0.93 0.90 0.89 0.91 0.95 0.83 0.93 1.20 1.20 1.24 1.28 1.26 1.26 1.12 0.90 0.77 0.78 0.75 0.62 0.71 0.80 0.89 1.24 1.92 2.24 2.24 1.96 1.67 1.50 1.41 1.35
1.04 0.93 0.81 0.84 0.77 0.71 0.81 0.97 1.16 1.20 1.17 1.12 0.97 0.97 0.94 0.86 0.81 0.70 0.71 0.82 0.85 0.93 0.93 1.02 1.06 0.89 0.73 0.69 0.70 0.64 0.62 0.69 0.79 0.89 1.30 2.04 2.35 2.34 2.16 1.84 1.61 1.48 1.45
0.95 0.96 0.82 0.79 0.70 0.62 0.58 0.66 0.82 0.88 0.89 0.90 0.92 0.85 0.87 0.92 0.90 0.78 0.78 0.85 0.88 0.86 0.96 1.00 1.03 0.92 0.75 0.63 0.61 0.64 0.69 0.73 0.84 1.04 1.37 1.92 2.31 2.42 2.44 2.15 1.92 1.73 1.61
0.96 0.93 0.88 0.82 0.76 0.76 0.72 0.65 0.62 0.66 0.72 0.78 0.86 0.79 0.73 0.80 0.89 0.88 0.85 0.93 0.91 0.92 0.99 0.96 0.84 0.85 0.79 0.67 0.65 0.67 0.76 0.77 0.91 1.03 1.23 1.61 2.14 2.68 2.81 2.61 2.24 1.99 1.93
0.89 0.96 0.94 0.86 0.83 0.75 0.70 0.69 0.70 0.67 0.69 0.73 0.79 0.74 0.67 0.68 0.73 0.85 0.86 0.96 0.91 0.96 1.04 0.93 0.87 0.89 0.87 0.75 0.68 0.72 0.74 0.77 0.85 1.01 1.14 1.38 1.70 2.25 2.80 2.90 2.64 2.33 2.14
0.78 0.88 0.95 0.92 0.91 0.81 0.74 0.75 0.76 0.75 0.69 0.71 0.76 0.67 0.62 0.68 0.69 0.82 0.91 0.95 0.94 0.96 0.98 1.00 0.99 0.94 0.86 0.79 0.78 0.75 0.74 0.77 0.95 1.07 1.11 1.27 1.32 1.42 1.98 2.65 2.89 2.78 2.55
0.75 0.78 0.86 0.86 0.89 0.88 0.85 0.85 0.82 0.77 0.76 0.79 0.80 0.74 0.69 0.69 0.73 0.95 1.02 0.93 0.98 1.09 1.14 1.18 1.14 1.06 0.98 0.97 0.99 0.94 0.86 0.92 1.10 1.18 1.11 1.08 1.13 1.07 1.23 1.61 2.01 2.33 2.64
0.72 0.71 0.73 0.76 0.94 0.95 0.91 0.96 0.95 0.93 0.99 1.01 1.00 0.95 0.87 0.84 0.92 1.11 1.20 1.10 1.09 1.26 1.25 1.16 1.21 1.26 1.21 1.24 1.17 1.17 1.10 1.11 1.13 1.07 1.07 1.13 1.19 1.17 1.19 1.08 1.25 1.55 2.13
0.66 0.64 0.67 0.72 0.85 0.95 1.07 1.15 1.21 1.22 1.23 1.35 1.40 1.36 1.17 1.12 1.16 1.33 1.45 1.41 1.37 1.51 1.53 1.42 1.55 1.60 1.51 1.56 1.43 1.35 1.28 1.25 1.21 1.17 1.16 1.24 1.36 1.26 1.28 1.18 1.13 1.00 1.30
0.57 0.55 0.62 0.75 0.89 1.03 1.15 1.26 1.50 1.66 1.75 1.75 1.73 1.78 1.70 1.49 1.56 1.69 1.68 1.91 1.98 1.97 2.00 1.95 2.12 2.17 1.89 1.74 2.10 2.04 1.63 1.32 1.20 1.26 1.35 1.39 1.51 1.53 1.48 1.42 1.35 1.14 1.06
0.48 0.51 0.57 0.71 0.93 1.15 1.34 1.49 1.66 1.99 2.14 2.12 2.17 2.09 2.02 1.90 1.91 1.83 1.93 2.18 2.24 2.36 2.47 2.32 2.47 2.58 2.27 1.97 2.43 2.91 2.47 2.00 1.39 1.15 1.27 1.42 1.61 1.64 1.57 1.46 1.44 1.39 1.29
0.34 0.40 0.49 0.60 0.82 1.13 1.43 1.64 1.82 2.04 2.29 2.38 2.26 2.22 2.22 2.27 2.31 2.19 2.14 2.29 2.34 2.45 2.68 2.72 2.67 2.81 2.75 2.38 2.35 2.92 2.90 2.50 2.07 1.51 1.32 1.40 1.59 1.71 1.76 1.75 1.60 1.58 1.48
0.34 0.38 0.47 0.59 0.74 0.96 1.22 1.54 1.79 2.06 2.36 2.40 2.34 2.32 2.34 2.40 2.46 2.41 2.36 2.44 2.50 2.50 2.62 2.68 2.67 2.94 3.18 2.91 2.60 2.37 2.33 2.37 2.41 2.02 1.59 1.45 1.59 1.70 1.85 1.79 1.81 1.87 1.82
0.41 0.45 0.56 0.69 0.79 0.95 1.19 1.52 1.83 2.03 2.22 2.39 2.38 2.27 2.19 2.24 2.22 2.17 2.28 2.45 2.48 2.50 2.51 2.68 2.80 3.02 3.07 3.03 2.90 2.73 2.54 2.37 2.02 2.09 2.01 1.74 1.69 1.62 1.76 1.94 2.01 2.06 2.00
0.51 0.60 0.73 0.82 0.98 1.10 1.19 1.31 1.46 1.67 1.96 2.12 2.25 2.24 2.22 2.20 2.08 1.97 2.07 2.16 2.26 2.34 2.34 2.40 2.56 2.73 2.95 3.10 3.04 2.87 2.80 2.73 2.50 2.32 2.03 1.87 1.93 1.78 1.68 1.73 1.84 1.94 2.08

GEFSSE_prec_meanprecacc_270.txt.gz
Total_Precipitation_Accumulation
1.99 2.11 3.22 3.32 2.84 2.60 2.68 2.54 2.46 2.43 2.39 2.34 2.22 2.12 2.03 1.85 1.62 1.48 1.30 1.20 1.16 1.22 1.20 1.18 1.17 1.07 0.97 0.88 0.93 1.04 1.06 1.20 1.24 1.22 1.32 1.40 1.41 1.55 1.72 1.97 2.24 2.44 2.22
1.71 2.07 3.19 3.22 2.76 2.38 2.38 2.34 2.38 2.37 2.31 2.21 2.09 2.09 1.91 1.79 1.64 1.44 1.26 1.21 1.16 1.23 1.32 1.35 1.26 1.11 0.96 0.91 0.97 1.09 1.08 1.18 1.27 1.33 1.58 1.73 1.72 1.75 1.63 1.82 2.12 2.39 2.22
1.61 1.83 2.46 2.92 2.68 2.30 2.17 2.23 2.31 2.25 2.20 2.13 2.05 2.10 1.77 1.65 1.61 1.48 1.35 1.33 1.31 1.33 1.34 1.40 1.41 1.28 1.09 1.04 1.10 1.19 1.23 1.26 1.31 1.42 1.99 2.74 2.12 1.86 1.94 2.06 2.23 2.15 2.15
1.56 1.62 1.98 2.69 2.54 2.26 2.18 2.26 2.29 2.23 2.19 2.17 2.07 1.90 1.63 1.58 1.56 1.54 1.52 1.50 1.41 1.38 1.43 1.46 1.48 1.37 1.24 1.16 1.17 1.21 1.35 1.40 1.48 1.54 1.96 2.60 2.49 2.11 1.98 2.10 2.25 2.05 2.08
1.47 1.59 2.12 2.53 2.36 2.17 2.01 2.06 2.16 2.15 2.10 2.13 2.04 1.77 1.57 1.43 1.41 1.47 1.54 1.50 1.45 1.43 1.37 1.36 1.32 1.26 1.26 1.19 1.16 1.19 1.25 1.33 1.54 1.44 1.72 2.30 2.71 2.28 1.87 2.03 2.22 2.11 2.10
1.36 1.49 1.86 2.24 2.21 2.07 1.90 1.94 1.82 1.76 1.79 1.91 1.84 1.65 1.48 1.49 1.44 1.46 1.47 1.40 1.40 1.37 1.30 1.23 1.20 1.17 1.13 1.08 1.07 1.13 1.21 1.29 1.32 1.46 1.83 2.35 2.61 2.25 1.82 1.90 2.15 2.27 2.33
1.31 1.28 1.51 1.86 1.93 1.91 1.90 1.83 1.76 1.63 1.68 1.70 1.63 1.55 1.46 1.47 1.46 1.43 1.31 1.19 1.19 1.25 1.23 1.23 1.19 1.11 1.05 1.01 1.02 1.06 1.17 1.11 1.11 1.48 1.81 2.25 2.22 2.05 1.75 1.87 2.24 2.48 2.53
1.30 1.19 1.27 1.54 1.62 1.56 1.58 1.81 1.84 1.57 1.63 1.61 1.48 1.45 1.45 1.39 1.39 1.33 1.16 1.13 1.16 1.24 1.24 1.16 1.13 1.06 1.04 1.03 1.07 1.11 1.20 0.94 0.81 1.13 1.49 2.03 2.29 2.14 1.78 1.79 2.07 2.31 2.51
1.40 1.25 1.17 1.13 1.21 1.36 1.56 1.59 1.53 1.56 1.68 1.63 1.42 1.36 1.38 1.23 1.12 1.10 1.12 1.20 1.19 1.24 1.24 1.16 1.08 1.02 1.07 1.13 1.16 1.15 1.13 0.96 0.88 1.12 1.24 1.81 2.30 2.22 1.88 1.78 1.92 2.06 2.28
1.25 1.13 1.01 0.92 0.97 1.07 1.23 1.37 1.40 1.42 1.51 1.49 1.39 1.41 1.43 1.20 1.05 1.09 1.13 1.30 1.29 1.27 1.31 1.23 1.09 1.04 1.07 1.17 1.11 1.01 0.95 0.80 0.82 0.99 1.39 1.69 2.39 2.36 1.97 1.75 1.74 1.78 1.85
1.08 1.00 0.93 0.83 0.86 0.93 1.00 1.07 1.21 1.26 1.30 1.23 1.12 1.17 1.10 0.89 0.85 0.96 1.01 1.34 1.46 1.51 1.46 1.38 1.28 1.16 1.10 1.08 1.03 0.91 0.75 0.68 0.84 1.01 1.38 1.90 2.35 2.32 1.94 1.69 1.67 1.58 1.53
1.09 0.99 0.88 0.86 0.84 0.83 0.82 1.08 1.26 1.10 1.02 0.92 0.94 0.90 0.90 0.93 0.97 0.85 0.96 1.23 1.23 1.27 1.31 1.29 1.28 1.14 0.91 0.78 0.79 0.76 0.64 0.73 0.80 0.90 1.27 2.00 2.32 2.32 2.02 1.72 1.55 1.47 1.40
1.07 0.95 0.82 0.84 0.78 0.72 0.82 0.98 1.17 1.21 1.18 1.14 0.98 0.98 0.94 0.86 0.82 0.71 0.72 0.84 0.87 0.95 0.95 1.04 1.07 0.90 0.74 0.70 0.70 0.64 0.63 0.72 0.80 0.89 1.32 2.11 2.44 2.41 2.23 1.88 1.64 1.52 1.49
0.97 0.98 0.83 0.80 0.71 0.62 0.58 0.67 0.83 0.89 0.90 0.92 0.93 0.86 0.87 0.92 0.90 0.79 0.80 0.86 0.89 0.87 0.97 1.02 1.04 0.93 0.77 0.64 0.62 0.65 0.72 0.76 0.85 1.04 1.38 1.96 2.38 2.48 2.50 2.19 1.95 1.77 1.65
0.99 0.94 0.90 0.84 0.77 0.77 0.74 0.67 0.63 0.67 0.73 0.79 0.87 0.80 0.74 0.81 0.90 0.89 0.86 0.94 0.92 0.93 0.99 0.97 0.85 0.86 0.80 0.68 0.67 0.70 0.78 0.80 0.93 1.04 1.24 1.64 2.19 2.73 2.88 2.67 2.28 2.03 1.97
0.91 0.98 0.96 0.88 0.84 0.77 0.73 0.72 0.72 0.68 0.70 0.73 0.81 0.75 0.68 0.69 0.75 0.86 0.87 0.96 0.92 0.97 1.05 0.93 0.87 0.89 0.88 0.76 0.70 0.74 0.76 0.80 0.88 1.03 1.15 1.40 1.74 2.30 2.87 2.98 2.70 2.39 2.19
0.80 0.90 0.97 0.95 0.94 0.84 0.78 0.78 0.78 0.75 0.70 0.72 0.76 0.68 0.63 0.69 0.70 0.83 0.92 0.96 0.96 0.98 0.99 1.01 1.00 0.95 0.87 0.81 0.81 0.77 0.75 0.79 0.97 1.09 1.14 1.29 1.35 1.46 2.04 2.72 2.96 2.82 2.58
0.79 0.80 0.88 0.87 0.91 0.91 0.88 0.88 0.85 0.79 0.77 0.81 0.81 0.74 0.69 0.70 0.74 0.96 1.04 0.96 1.02 1.12 1.15 1.19 1.15 1.06 0.99 0.99 1.01 0.97 0.88 0.93 1.11 1.19 1.13 1.10 1.15 1.09 1.25 1.65 2.06 2.37 2.68
0.74 0.74 0.76 0.77 0.95 0.97 0.92 0.98 0.97 0.94 1.00 1.02 1.01 0.96 0.88 0.84 0.93 1.12 1.21 1.12 1.10 1.27 1.26 1.16 1.21 1.26 1.22 1.26 1.19 1.19 1.13 1.13 1.14 1.09 1.08 1.14 1.19 1.18 1.20 1.10 1.26 1.57 2.16
0.67 0.66 0.69 0.73 0.86 0.96 1.09 1.17 1.23 1.23 1.23 1.36 1.42 1.37 1.17 1.12 1.17 1.33 1.45 1.43 1.38 1.52 1.54 1.43 1.55 1.61 1.53 1.57 1.45 1.36 1.29 1.26 1.22 1.18 1.17 1.24 1.36 1.27 1.29 1.19 1.14 1.02 1.32
0.58 0.56 0.62 0.75 0.90 1.04 1.16 1.28 1.51 1.67 1.76 1.75 1.74 1.80 1.71 1.50 1.57 1.69 1.68 1.91 1.98 1.97 2.00 1.96 2.13 2.18 1.90 1.76 2.11 2.06 1.64 1.33 1.21 1.27 1.35 1.40 1.52 1.55 1.50 1.44 1.37 1.15 1.07
0.49 0.52 0.57 0.71 0.94 1.15 1.35 1.51 1.68 2.00 2.16 2.15 2.19 2.11 2.04 1.91 1.92 1.84 1.93 2.18 2.25 2.37 2.47 2.32 2.48 2.59 2.28 1.98 2.44 2.93 2.50 2.01 1.40 1.16 1.27 1.44 1.62 1.66 1.59 1.47 1.46 1.40 1.30
0.35 0.42 0.50 0.61 0.83 1.14 1.43 1.65 1.83 2.06 2.31 2.41 2.29 2.24 2.24 2.29 2.32 2.20 2.15 2.30 2.35 2.45 2.68 2.73 2.68 2.81 2.76 2.39 2.36 2.93 2.92 2.52 2.08 1.52 1.34 1.41 1.61 1.73 1.78 1.77 1.61 1.59 1.49
0.35 0.41 0.50 0.61 0.75 0.97 1.23 1.54 1.80 2.07 2.37 2.42 2.36 2.34 2.37 2.44 2.48 2.42 2.37 2.45 2.50 2.51 2.63 2.69 2.67 2.94 3.18 2.92 2.61 2.39 2.35 2.38 2.42 2.04 1.61 1.47 1.62 1.73 1.88 1.81 1.83 1.88 1.83
0.42 0.46 0.58 0.70 0.80 0.96 1.21 1.54 1.84 2.03 2.22 2.40 2.40 2.29 2.21 2.28 2.25 2.19 2.30 2.46 2.50 2.51 2.53 2.70 2.81 3.03 3.08 3.03 2.91 2.74 2.56 2.38 2.03 2.10 2.02 1.76 1.71 1.64 1.78 1.96 2.03 2.07 2.01
0.51 0.61 0.73 0.83 0.98 1.11 1.20 1.32 1.47 1.67 1.96 2.12 2.25 2.25 2.23 2.23 2.11 2.01 2.10 2.18 2.29 2.36 2.35 2.41 2.58 2.74 2.96 3.11 3.05 2.87 2.81 2.74 2.51 2.33 2.04 1.88 1.94 1.80 1.71 1.75 1.87 1.96 2.11

GEFSSE_prec_meanprecacc_276.txt.gz
Total_Precipitation_Accumulation
2.01 2.15 3.30 3.42 2.92 2.70 2.78 2.63 2.54 2.49 2.43 2.38 2.25 2.14 2.06 1.87 1.64 1.51 1.36 1.28 1.23 1.29 1.28 1.25 1.25 1.15 1.05 0.96 0.99 1.11 1.13 1.29 1.32 1.29 1.38 1.45 1.46 1.63 1.78 2.04 2.31 2.49 2.31
1.73 2.12 3.28 3.32 2.83 2.45 2.45 2.41 2.44 2.42 2.36 2.23 2.10 2.12 1.94 1.82 1.67 1.49 1.32 1.27 1.20 1.28 1.38 1.42 1.34 1.18 1.02 0.96 1.02 1.14 1.14 1.23 1.33 1.41 1.67 1.82 1.80 1.83 1.70 1.88 2.18 2.46 2.31
1.63 1.86 2.52 2.99 2.74 2.36 2.21 2.27 2.35 2.30 2.23 2.16 2.08 2.13 1.80 1.68 1.66 1.54 1.42 1.39 1.34 1.36 1.39 1.46 1.47 1.33 1.14 1.08 1.13 1.24 1.29 1.30 1.34 1.45 2.02 2.78 2.17 1.94 2.03 2.15 2.34 2.25 2.26
1.58 1.64 2.01 2.74 2.60 2.30 2.21 2.29 2.33 2.27 2.22 2.20 2.11 1.94 1.66 1.61 1.61 1.61 1.62 1.56 1.45 1.43 1.50 1.52 1.52 1.41 1.28 1.19 1.20 1.26 1.40 1.44 1.51 1.55 1.96 2.60 2.50 2.18 2.12 2.26 2.41 2.18 2.18
1.48 1.60 2.15 2.58 2.42 2.23 2.05 2.11 2.19 2.17 2.13 2.16 2.08 1.80 1.60 1.46 1.45 1.54 1.66 1.61 1.53 1.50 1.44 1.41 1.37 1.31 1.30 1.23 1.20 1.23 1.30 1.37 1.57 1.44 1.72 2.30 2.73 2.34 1.94 2.11 2.31 2.20 2.16
1.37 1.50 1.88 2.28 2.25 2.12 1.93 1.97 1.84 1.77 1.81 1.94 1.87 1.68 1.53 1.52 1.47 1.52 1.59 1.56 1.53 1.45 1.35 1.28 1.24 1.21 1.18 1.11 1.11 1.16 1.25 1.32 1.33 1.46 1.83 2.35 2.64 2.31 1.90 2.01 2.27 2.36 2.39
1.32 1.29 1.53 1.90 1.97 1.95 1.94 1.88 1.79 1.64 1.70 1.74 1.68 1.60 1.49 1.50 1.50 1.49 1.39 1.27 1.27 1.31 1.28 1.28 1.25 1.15 1.09 1.05 1.07 1.09 1.20 1.13 1.12 1.48 1.81 2.26 2.26 2.12 1.81 1.96 2.34 2.59 2.60
1.30 1.20 1.28 1.58 1.66 1.60 1.63 1.86 1.88 1.60 1.66 1.63 1.52 1.47 1.47 1.44 1.44 1.40 1.22 1.18 1.21 1.30 1.31 1.22 1.18 1.11 1.10 1.09 1.13 1.15 1.23 0.96 0.84 1.16 1.51 2.07 2.37 2.22 1.85 1.87 2.17 2.41 2.60
1.40 1.25 1.18 1.15 1.24 1.40 1.61 1.64 1.59 1.60 1.71 1.66 1.45 1.39 1.43 1.29 1.18 1.16 1.17 1.25 1.25 1.31 1.31 1.22 1.13 1.07 1.13 1.20 1.23 1.20 1.17 0.98 0.89 1.15 1.30 1.89 2.42 2.31 1.96 1.84 2.00 2.14 2.35
1.25 1.13 1.02 0.93 0.99 1.09 1.26 1.43 1.46 1.46 1.54 1.54 1.46 1.49 1.51 1.28 1.13 1.18 1.20 1.38 1.38 1.35 1.37 1.28 1.15 1.09 1.13 1.23 1.17 1.06 0.98 0.81 0.82 1.00 1.43 1.81 2.53 2.46 2.04 1.81 1.79 1.83 1.91
1.09 1.01 0.93 0.83 0.87 0.94 1.01 1.10 1.26 1.30 1.33 1.25 1.16 1.23 1.15 0.94 0.91 1.02 1.07 1.40 1.52 1.58 1.52 1.42 1.33 1.21 1.13 1.11 1.07 0.93 0.76 0.68 0.84 1.02 1.41 1.99 2.44 2.40 2.02 1.75 1.73 1.62 1.58
1.10 1.00 0.88 0.87 0.84 0.84 0.83 1.09 1.27 1.10 1.02 0.93 0.94 0.92 0.91 0.93 0.99 0.88 1.01 1.29 1.28 1.32 1.36 1.34 1.32 1.16 0.92 0.78 0.81 0.77 0.65 0.73 0.81 0.91 1.30 2.07 2.40 2.39 2.09 1.77 1.60 1.51 1.44
1.08 0.96 0.84 0.86 0.80 0.73 0.83 0.99 1.17 1.21 1.18 1.14 0.98 0.98 0.94 0.87 0.83 0.73 0.76 0.88 0.89 0.97 0.97 1.07 1.09 0.91 0.75 0.71 0.71 0.66 0.64 0.72 0.80 0.90 1.36 2.17 2.51 2.48 2.29 1.93 1.70 1.57 1.54
0.98 1.00 0.84 0.81 0.74 0.64 0.60 0.68 0.84 0.89 0.90 0.92 0.94 0.86 0.87 0.93 0.91 0.81 0.82 0.88 0.90 0.88 0.98 1.04 1.05 0.94 0.77 0.64 0.63 0.67 0.72 0.76 0.85 1.05 1.40 2.00 2.42 2.53 2.55 2.24 2.01 1.82 1.70
1.01 0.97 0.92 0.85 0.79 0.79 0.75 0.68 0.65 0.68 0.75 0.81 0.88 0.81 0.75 0.82 0.91 0.92 0.89 0.95 0.93 0.94 1.00 0.97 0.85 0.86 0.81 0.69 0.68 0.72 0.79 0.81 0.94 1.04 1.25 1.67 2.24 2.79 2.94 2.75 2.35 2.09 2.01
0.93 1.00 0.98 0.90 0.87 0.80 0.75 0.74 0.74 0.70 0.72 0.76 0.82 0.77 0.69 0.70 0.75 0.87 0.88 0.97 0.93 0.97 1.05 0.94 0.87 0.90 0.89 0.78 0.74 0.77 0.78 0.81 0.89 1.03 1.16 1.41 1.76 2.35 2.94 3.07 2.79 2.46 2.24
0.83 0.93 1.01 0.98 0.97 0.87 0.80 0.80 0.81 0.77 0.72 0.73 0.77 0.69 0.64 0.70 0.70 0.83 0.92 0.96 0.96 0.98 1.00 1.02 1.01 0.96 0.89 0.83 0.84 0.82 0.79 0.82 0.99 1.10 1.15 1.30 1.36 1.49 2.09 2.80 3.05 2.90 2.67
0.84 0.85 0.91 0.89 0.94 0.96 0.92 0.91 0.87 0.81 0.80 0.83 0.83 0.75 0.70 0.70 0.75 0.97 1.06 0.97 1.02 1.12 1.16 1.20 1.16 1.08 1.01 1.00 1.03 1.00 0.92 0.96 1.13 1.20 1.15 1.11 1.17 1.11 1.30 1.73 2.14 2.45 2.76
0.80 0.78 0.79 0.79 0.97 1.00 0.96 1.01 0.99 0.96 1.02 1.05 1.03 0.97 0.89 0.85 0.95 1.14 1.23 1.13 1.11 1.27 1.27 1.18 1.23 1.28 1.23 1.26 1.20 1.22 1.17 1.18 1.18 1.12 1.10 1.16 1.21 1.20 1.24 1.14 1.31 1.63 2.22
0.70 0.69 0.71 0.75 0.88 0.99 1.11 1.19 1.25 1.25 1.25 1.38 1.43 1.38 1.18 1.13 1.17 1.34 1.46 1.44 1.38 1.52 1.55 1.44 1.57 1.63 1.55 1.59 1.46 1.39 1.34 1.31 1.25 1.22 1.20 1.28 1.39 1.30 1.31 1.20 1.15 1.04 1.36
0.60 0.58 0.63 0.76 0.91 1.06 1.18 1.30 1.53 1.68 1.78 1.78 1.77 1.81 1.71 1.51 1.57 1.70 1.69 1.92 1.98 1.97 2.01 1.97 2.15 2.20 1.92 1.78 2.13 2.08 1.67 1.35 1.23 1.30 1.39 1.44 1.56 1.58 1.53 1.46 1.38 1.17 1.08
0.51 0.53 0.58 0.72 0.95 1.16 1.36 1.53 1.70 2.02 2.18 2.17 2.23 2.13 2.05 1.92 1.93 1.85 1.94 2.19 2.25 2.37 2.47 2.33 2.49 2.60 2.30 2.01 2.46 2.95 2.52 2.03 1.41 1.18 1.30 1.47 1.64 1.68 1.62 1.49 1.47 1.42 1.31
0.38 0.44 0.52 0.62 0.84 1.15 1.44 1.67 1.85 2.08 2.34 2.45 2.34 2.28 2.27 2.31 2.34 2.21 2.15 2.30 2.35 2.46 2.68 2.73 2.69 2.82 2.77 2.42 2.38 2.96 2.94 2.53 2.09 1.53 1.35 1.43 1.63 1.75 1.81 1.78 1.61 1.59 1.50
0.38 0.43 0.53 0.62 0.77 0.98 1.24 1.55 1.81 2.08 2.39 2.45 2.40 2.38 2.41 2.47 2.51 2.44 2.38 2.46 2.51 2.52 2.64 2.70 2.69 2.96 3.19 2.93 2.63 2.41 2.37 2.39 2.43 2.05 1.63 1.48 1.63 1.76 1.91 1.83 1.85 1.90 1.85
0.44 0.49 0.60 0.71 0.82 0.99 1.24 1.55 1.85 2.04 2.23 2.41 2.41 2.31 2.24 2.31 2.28 2.20 2.30 2.47 2.51 2.53 2.53 2.71 2.82 3.06 3.10 3.04 2.92 2.76 2.56 2.39 2.03 2.11 2.04 1.77 1.71 1.65 1.80 1.98 2.06 2.10 2.03
0.53 0.63 0.76 0.85 1.00 1.13 1.22 1.33 1.47 1.68 1.97 2.13 2.26 2.25 2.24 2.24 2.13 2.03 2.11 2.20 2.30 2.38 2.36 2.42 2.59 2.76 2.98 3.12 3.06 2.88 2.82 2.75 2.52 2.34 2.05 1.89 1.96 1.82 1.73 1.77 1.90 1.99 2.13

GEFSSE_prec_meanprecacc_282.txt.gz
Total_Precipitation_Accumulation
2.05 2.20 3.37 3.51 3.02 2.82 2.86 2.70 2.64 2.59 2.49 2.42 2.29 2.19 2.10 1.91 1.69 1.57 1.40 1.32 1.28 1.34 1.32 1.29 1.30 1.20 1.09 1.01 1.04 1.16 1.18 1.37 1.44 1.38 1.45 1.51 1.53 1.70 1.86 2.11 2.38 2.56 2.38
1.76 2.16 3.34 3.40 2.92 2.56 2.56 2.52 2.54 2.49 2.41 2.27 2.14 2.17 1.98 1.86 1.72 1.55 1.36 1.31 1.24 1.33 1.43 1.47 1.37 1.22 1.06 1.00 1.06 1.19 1.20 1.29 1.44 1.51 1.74 1.92 1.89 1.92 1.78 1.95 2.26 2.55 2.41
1.64 1.89 2.57 3.07 2.81 2.43 2.29 2.36 2.42 2.34 2.26 2.19 2.12 2.18 1.84 1.72 1.71 1.61 1.48 1.44 1.40 1.42 1.43 1.50 1.51 1.37 1.19 1.11 1.18 1.29 1.34 1.35 1.37 1.47 2.05 2.83 2.25 2.05 2.15 2.25 2.44 2.33 2.36
1.59 1.67 2.05 2.80 2.66 2.34 2.26 2.36 2.37 2.30 2.25 2.24 2.16 2.00 1.71 1.67 1.69 1.73 1.75 1.65 1.51 1.48 1.55 1.56 1.57 1.47 1.34 1.24 1.25 1.31 1.45 1.47 1.54 1.56 1.98 2.64 2.56 2.29 2.26 2.37 2.51 2.28 2.26
1.49 1.62 2.18 2.62 2.46 2.28 2.10 2.16 2.23 2.21 2.17 2.22 2.15 1.86 1.65 1.54 1.57 1.64 1.74 1.70 1.60 1.56 1.51 1.49 1.42 1.37 1.37 1.28 1.25 1.27 1.35 1.40 1.59 1.46 1.74 2.33 2.79 2.42 2.03 2.20 2.38 2.29 2.25
1.38 1.51 1.92 2.33 2.29 2.17 1.99 2.01 1.88 1.80 1.85 1.99 1.93 1.75 1.58 1.60 1.60 1.65 1.73 1.67 1.61 1.53 1.43 1.39 1.35 1.29 1.24 1.17 1.16 1.20 1.29 1.35 1.36 1.48 1.85 2.38 2.70 2.38 1.96 2.06 2.33 2.45 2.48
1.34 1.32 1.55 1.93 2.02 2.00 1.98 1.92 1.84 1.67 1.73 1.77 1.71 1.64 1.53 1.57 1.63 1.64 1.54 1.38 1.36 1.38 1.34 1.38 1.38 1.25 1.16 1.11 1.11 1.13 1.23 1.16 1.15 1.50 1.84 2.30 2.33 2.18 1.87 2.01 2.41 2.66 2.66
1.32 1.22 1.30 1.61 1.71 1.66 1.68 1.91 1.93 1.64 1.68 1.66 1.55 1.52 1.53 1.53 1.55 1.48 1.31 1.26 1.29 1.38 1.41 1.32 1.26 1.19 1.17 1.16 1.18 1.19 1.27 0.99 0.89 1.20 1.57 2.16 2.49 2.30 1.92 1.94 2.26 2.50 2.69
1.41 1.26 1.19 1.17 1.27 1.44 1.67 1.71 1.65 1.66 1.74 1.69 1.49 1.45 1.49 1.35 1.25 1.23 1.26 1.34 1.33 1.39 1.37 1.27 1.18 1.14 1.20 1.26 1.27 1.24 1.20 1.01 0.92 1.20 1.36 1.99 2.52 2.39 2.03 1.91 2.07 2.22 2.44
1.26 1.15 1.03 0.95 1.01 1.12 1.32 1.50 1.52 1.51 1.58 1.57 1.49 1.54 1.55 1.34 1.19 1.25 1.27 1.46 1.45 1.40 1.42 1.33 1.21 1.16 1.20 1.28 1.21 1.09 0.99 0.83 0.84 1.03 1.49 1.91 2.65 2.56 2.12 1.87 1.84 1.88 1.96
1.10 1.03 0.95 0.85 0.88 0.96 1.04 1.14 1.32 1.34 1.35 1.27 1.17 1.25 1.17 0.97 0.94 1.06 1.12 1.45 1.58 1.63 1.56 1.46 1.38 1.27 1.17 1.15 1.10 0.95 0.76 0.69 0.86 1.04 1.45 2.07 2.57 2.51 2.10 1.81 1.78 1.67 1.63
1.12 1.01 0.91 0.89 0.86 0.85 0.84 1.11 1.29 1.11 1.03 0.93 0.95 0.92 0.91 0.95 1.01 0.90 1.04 1.34 1.32 1.37 1.40 1.37 1.34 1.18 0.94 0.79 0.81 0.78 0.66 0.74 0.82 0.93 1.37 2.16 2.50 2.51 2.20 1.85 1.67 1.57 1.50
1.09 0.98 0.85 0.88 0.82 0.75 0.84 1.00 1.18 1.21 1.19 1.15 0.99 0.98 0.95 0.88 0.84 0.75 0.78 0.90 0.92 0.99 0.99 1.08 1.10 0.92 0.76 0.72 0.72 0.67 0.66 0.73 0.81 0.91 1.40 2.23 2.58 2.56 2.37 2.02 1.80 1.64 1.60
0.99 1.01 0.85 0.82 0.75 0.66 0.61 0.69 0.85 0.90 0.91 0.93 0.94 0.87 0.88 0.94 0.92 0.82 0.83 0.89 0.92 0.90 1.00 1.05 1.06 0.95 0.79 0.66 0.64 0.68 0.74 0.77 0.86 1.07 1.44 2.05 2.50 2.61 2.63 2.31 2.07 1.88 1.76
1.02 0.98 0.92 0.86 0.80 0.81 0.77 0.69 0.66 0.69 0.76 0.82 0.90 0.82 0.76 0.83 0.93 0.93 0.90 0.96 0.94 0.95 1.01 0.98 0.86 0.87 0.83 0.71 0.70 0.73 0.80 0.82 0.94 1.06 1.28 1.70 2.30 2.88 3.04 2.84 2.43 2.15 2.06
0.94 1.01 1.00 0.91 0.88 0.81 0.77 0.77 0.76 0.72 0.75 0.78 0.84 0.77 0.70 0.72 0.77 0.88 0.90 0.98 0.94 0.98 1.06 0.94 0.88 0.90 0.90 0.80 0.76 0.78 0.79 0.82 0.90 1.04 1.18 1.44 1.80 2.41 3.02 3.17 2.88 2.53 2.29
0.84 0.95 1.02 0.99 0.98 0.88 0.82 0.82 0.83 0.80 0.75 0.75 0.79 0.70 0.65 0.71 0.72 0.84 0.93 0.97 0.97 0.99 1.00 1.02 1.02 0.97 0.90 0.84 0.85 0.84 0.80 0.83 0.99 1.11 1.16 1.32 1.39 1.51 2.14 2.87 3.16 3.01 2.74
0.89 0.88 0.93 0.91 0.95 0.97 0.95 0.93 0.91 0.85 0.83 0.85 0.85 0.78 0.72 0.71 0.76 0.99 1.07 0.97 1.03 1.13 1.17 1.21 1.17 1.09 1.02 1.01 1.04 1.02 0.93 0.97 1.13 1.22 1.16 1.13 1.19 1.13 1.34 1.78 2.22 2.55 2.86
0.84 0.82 0.83 0.83 1.00 1.02 0.98 1.04 1.04 1.00 1.05 1.08 1.06 1.01 0.92 0.87 0.97 1.16 1.24 1.14 1.12 1.28 1.28 1.18 1.23 1.29 1.24 1.28 1.22 1.24 1.20 1.20 1.20 1.13 1.11 1.17 1.22 1.22 1.27 1.21 1.40 1.69 2.29
0.73 0.72 0.75 0.80 0.93 1.02 1.14 1.21 1.27 1.27 1.28 1.41 1.46 1.41 1.21 1.15 1.19 1.35 1.48 1.45 1.39 1.53 1.56 1.45 1.58 1.65 1.56 1.61 1.49 1.41 1.37 1.33 1.27 1.24 1.22 1.28 1.40 1.31 1.34 1.27 1.23 1.08 1.39
0.62 0.60 0.66 0.80 0.94 1.08 1.21 1.33 1.55 1.70 1.80 1.80 1.79 1.83 1.73 1.52 1.58 1.71 1.70 1.93 1.99 1.98 2.02 1.99 2.16 2.23 1.95 1.80 2.16 2.12 1.72 1.40 1.26 1.33 1.41 1.46 1.58 1.60 1.56 1.50 1.42 1.20 1.10
0.54 0.57 0.63 0.76 0.98 1.18 1.38 1.55 1.72 2.04 2.19 2.18 2.24 2.15 2.07 1.94 1.94 1.86 1.95 2.20 2.26 2.38 2.48 2.34 2.52 2.64 2.33 2.03 2.49 2.99 2.58 2.10 1.45 1.21 1.32 1.49 1.67 1.71 1.65 1.52 1.50 1.44 1.34
0.42 0.49 0.58 0.69 0.89 1.17 1.46 1.68 1.87 2.10 2.35 2.46 2.35 2.30 2.29 2.33 2.37 2.23 2.18 2.32 2.36 2.47 2.70 2.74 2.70 2.84 2.80 2.44 2.41 2.99 2.99 2.59 2.13 1.56 1.38 1.46 1.65 1.78 1.83 1.80 1.63 1.61 1.51
0.43 0.49 0.60 0.69 0.82 1.01 1.26 1.57 1.83 2.09 2.40 2.46 2.41 2.39 2.42 2.50 2.54 2.47 2.41 2.48 2.52 2.53 2.65 2.71 2.70 2.98 3.21 2.97 2.66 2.43 2.40 2.43 2.46 2.08 1.65 1.51 1.65 1.78 1.93 1.85 1.87 1.92 1.86
0.48 0.54 0.68 0.79 0.87 1.02 1.27 1.57 1.86 2.06 2.24 2.42 2.42 2.32 2.25 2.33 2.30 2.22 2.32 2.48 2.52 2.54 2.55 2.72 2.84 3.09 3.15 3.07 2.95 2.78 2.60 2.43 2.06 2.14 2.06 1.80 1.74 1.68 1.82 1.99 2.08 2.11 2.05
0.56 0.66 0.80 0.91 1.05 1.17 1.26 1.36 1.49 1.69 1.98 2.13 2.27 2.26 2.24 2.25 2.14 2.03 2.12 2.22 2.33 2.40 2.38 2.43 2.60 2.79 3.04 3.18 3.09 2.90 2.84 2.77 2.54 2.36 2.07 1.91 1.99 1.86 1.76 1.79 1.91 2.01 2.14

GEFSSE_prec_meanprecacc_288.txt.gz
Total_Precipitation_Accumulation
2.13 2.26 3.41 3.57 3.11 2.90 2.91 2.75 2.71 2.65 2.53 2.45 2.32 2.23 2.14 1.97 1.76 1.62 1.45 1.36 1.32 1.37 1.36 1.33 1.34 1.25 1.14 1.04 1.07 1.19 1.21 1.43 1.52 1.48 1.53 1.59 1.60 1.76 1.93 2.19 2.47 2.63 2.45
1.80 2.20 3.36 3.43 2.99 2.63 2.60 2.57 2.60 2.55 2.45 2.30 2.17 2.20 2.02 1.93 1.80 1.60 1.41 1.35 1.29 1.37 1.47 1.50 1.41 1.26 1.09 1.02 1.09 1.23 1.25 1.35 1.51 1.58 1.83 2.01 1.97 2.00 1.87 2.05 2.35 2.64 2.50
1.67 1.93 2.60 3.09 2.86 2.52 2.37 2.42 2.49 2.38 2.29 2.23 2.15 2.22 1.89 1.79 1.77 1.67 1.53 1.49 1.45 1.47 1.48 1.55 1.56 1.42 1.23 1.14 1.21 1.33 1.37 1.39 1.42 1.53 2.12 2.94 2.36 2.13 2.23 2.34 2.55 2.47 2.47
1.60 1.70 2.07 2.82 2.69 2.41 2.35 2.44 2.44 2.35 2.29 2.28 2.20 2.02 1.74 1.72 1.75 1.78 1.79 1.71 1.56 1.54 1.61 1.60 1.60 1.51 1.38 1.26 1.28 1.34 1.49 1.52 1.60 1.63 2.08 2.75 2.67 2.35 2.33 2.48 2.65 2.40 2.36
1.50 1.65 2.20 2.64 2.49 2.33 2.15 2.22 2.30 2.28 2.22 2.27 2.19 1.88 1.71 1.65 1.66 1.70 1.80 1.76 1.68 1.62 1.58 1.53 1.45 1.41 1.41 1.31 1.29 1.32 1.39 1.45 1.65 1.52 1.84 2.44 2.92 2.54 2.11 2.30 2.48 2.38 2.34
1.40 1.53 1.93 2.36 2.33 2.22 2.02 2.06 1.96 1.87 1.90 2.03 1.98 1.80 1.69 1.72 1.66 1.71 1.79 1.74 1.68 1.58 1.49 1.44 1.39 1.33 1.30 1.24 1.22 1.26 1.33 1.40 1.42 1.56 1.94 2.48 2.82 2.47 2.02 2.12 2.40 2.53 2.57
1.37 1.34 1.56 1.95 2.04 2.04 2.01 1.95 1.89 1.73 1.77 1.82 1.76 1.71 1.64 1.70 1.72 1.70 1.61 1.45 1.41 1.42 1.39 1.46 1.47 1.32 1.26 1.21 1.18 1.19 1.27 1.22 1.21 1.56 1.92 2.41 2.42 2.25 1.92 2.07 2.48 2.73 2.72
1.36 1.25 1.31 1.62 1.73 1.69 1.71 1.94 1.97 1.68 1.72 1.70 1.59 1.56 1.59 1.59 1.60 1.53 1.35 1.31 1.33 1.44 1.48 1.43 1.37 1.27 1.26 1.23 1.24 1.26 1.35 1.05 0.95 1.25 1.63 2.23 2.56 2.37 1.99 2.01 2.34 2.57 2.75
1.43 1.30 1.21 1.19 1.28 1.47 1.69 1.73 1.68 1.69 1.77 1.72 1.53 1.49 1.52 1.39 1.29 1.26 1.30 1.39 1.37 1.43 1.42 1.32 1.24 1.21 1.27 1.32 1.33 1.31 1.26 1.06 0.98 1.28 1.42 2.06 2.59 2.47 2.09 2.00 2.16 2.29 2.51
1.27 1.18 1.06 0.96 1.02 1.14 1.33 1.50 1.53 1.53 1.60 1.58 1.51 1.56 1.58 1.37 1.22 1.28 1.30 1.51 1.50 1.44 1.46 1.37 1.25 1.20 1.25 1.33 1.27 1.15 1.04 0.87 0.89 1.07 1.57 2.00 2.73 2.64 2.21 1.98 1.93 1.94 2.01
1.11 1.05 0.98 0.87 0.91 0.99 1.05 1.14 1.33 1.36 1.37 1.28 1.19 1.28 1.22 1.02 0.98 1.09 1.15 1.48 1.62 1.67 1.60 1.51 1.42 1.31 1.21 1.18 1.15 1.00 0.81 0.75 0.91 1.09 1.52 2.18 2.68 2.61 2.20 1.92 1.86 1.72 1.67
1.14 1.03 0.93 0.91 0.89 0.89 0.86 1.12 1.31 1.13 1.06 0.96 0.97 0.96 0.97 1.01 1.06 0.93 1.06 1.36 1.36 1.40 1.44 1.41 1.36 1.21 0.98 0.82 0.84 0.82 0.72 0.78 0.85 0.97 1.43 2.25 2.59 2.59 2.26 1.92 1.74 1.65 1.56
1.10 0.99 0.87 0.90 0.85 0.78 0.87 1.02 1.21 1.25 1.22 1.17 1.01 1.01 0.97 0.91 0.87 0.77 0.79 0.92 0.95 1.03 1.01 1.10 1.12 0.94 0.78 0.74 0.74 0.70 0.69 0.75 0.83 0.94 1.45 2.29 2.64 2.63 2.42 2.08 1.87 1.71 1.67
1.01 1.03 0.86 0.84 0.77 0.68 0.62 0.70 0.86 0.92 0.93 0.94 0.97 0.90 0.91 0.97 0.96 0.85 0.86 0.92 0.95 0.93 1.04 1.09 1.09 0.96 0.81 0.68 0.66 0.70 0.75 0.78 0.88 1.10 1.48 2.10 2.55 2.69 2.70 2.38 2.15 1.96 1.83
1.04 0.99 0.94 0.87 0.82 0.82 0.78 0.70 0.67 0.70 0.79 0.83 0.90 0.83 0.79 0.86 0.96 0.97 0.93 1.01 0.98 0.99 1.04 1.02 0.89 0.90 0.86 0.74 0.72 0.74 0.81 0.83 0.97 1.09 1.31 1.73 2.35 2.93 3.12 2.91 2.48 2.19 2.11
0.98 1.03 1.02 0.93 0.90 0.82 0.77 0.77 0.77 0.73 0.77 0.80 0.85 0.79 0.71 0.73 0.79 0.91 0.93 1.02 0.97 1.00 1.07 0.96 0.90 0.94 0.94 0.83 0.78 0.79 0.80 0.84 0.93 1.07 1.21 1.47 1.83 2.44 3.07 3.23 2.93 2.58 2.35
0.90 1.00 1.06 1.02 1.00 0.90 0.83 0.83 0.84 0.82 0.77 0.79 0.80 0.71 0.66 0.72 0.73 0.85 0.94 0.98 0.99 1.00 1.01 1.03 1.03 0.98 0.91 0.86 0.87 0.85 0.81 0.83 1.00 1.13 1.19 1.36 1.42 1.53 2.16 2.90 3.21 3.07 2.82
0.92 0.92 0.96 0.94 0.98 1.00 0.96 0.95 0.93 0.87 0.85 0.88 0.87 0.80 0.73 0.73 0.78 1.00 1.07 0.98 1.03 1.13 1.18 1.22 1.19 1.11 1.03 1.03 1.06 1.03 0.94 0.97 1.14 1.22 1.18 1.16 1.22 1.16 1.35 1.80 2.26 2.63 2.97
0.88 0.86 0.86 0.85 1.03 1.05 1.01 1.06 1.06 1.02 1.07 1.10 1.09 1.03 0.94 0.88 0.98 1.17 1.26 1.15 1.13 1.29 1.29 1.19 1.25 1.31 1.27 1.31 1.23 1.25 1.21 1.21 1.20 1.14 1.12 1.19 1.24 1.24 1.30 1.24 1.43 1.75 2.38
0.77 0.76 0.78 0.83 0.95 1.04 1.17 1.24 1.29 1.29 1.30 1.43 1.49 1.43 1.22 1.17 1.20 1.37 1.50 1.46 1.40 1.55 1.58 1.46 1.59 1.67 1.58 1.64 1.51 1.43 1.38 1.34 1.27 1.24 1.23 1.29 1.41 1.33 1.38 1.32 1.30 1.14 1.47
0.65 0.63 0.70 0.84 0.97 1.09 1.23 1.38 1.59 1.73 1.82 1.83 1.81 1.84 1.75 1.54 1.60 1.73 1.72 1.94 2.00 1.99 2.03 2.00 2.18 2.24 1.96 1.81 2.18 2.14 1.74 1.41 1.27 1.34 1.43 1.47 1.59 1.61 1.58 1.54 1.51 1.29 1.17
0.56 0.60 0.66 0.81 1.02 1.20 1.41 1.58 1.74 2.06 2.21 2.21 2.26 2.17 2.09 1.95 1.95 1.88 1.99 2.23 2.28 2.39 2.50 2.36 2.53 2.66 2.34 2.05 2.51 3.02 2.61 2.13 1.48 1.23 1.34 1.50 1.68 1.72 1.66 1.54 1.54 1.51 1.41
0.44 0.51 0.61 0.72 0.93 1.21 1.49 1.71 1.88 2.12 2.38 2.49 2.37 2.33 2.31 2.35 2.38 2.25 2.22 2.38 2.42 2.51 2.72 2.76 2.71 2.86 2.83 2.47 2.43 3.02 3.03 2.64 2.17 1.60 1.41 1.48 1.67 1.79 1.85 1.82 1.65 1.65 1.56
0.44 0.52 0.63 0.74 0.88 1.06 1.30 1.60 1.86 2.13 2.44 2.48 2.42 2.40 2.43 2.50 2.55 2.48 2.44 2.52 2.57 2.56 2.67 2.72 2.71 3.00 3.24 3.02 2.69 2.46 2.44 2.47 2.51 2.13 1.71 1.55 1.67 1.79 1.94 1.86 1.88 1.94 1.89
0.49 0.55 0.70 0.82 0.94 1.10 1.34 1.62 1.92 2.10 2.28 2.45 2.45 2.33 2.26 2.34 2.31 2.22 2.33 2.49 2.53 2.56 2.57 2.73 2.85 3.11 3.17 3.11 2.99 2.81 2.63 2.46 2.10 2.18 2.11 1.84 1.77 1.70 1.83 2.00 2.09 2.14 2.08
0.57 0.67 0.82 0.95 1.09 1.22 1.32 1.42 1.56 1.75 2.02 2.17 2.31 2.29 2.26 2.27 2.16 2.05 2.13 2.25 2.35 2.42 2.39 2.44 2.62 2.81 3.07 3.20 3.12 2.93 2.87 2.80 2.58 2.39 2.09 1.94 2.01 1.88 1.77 1.80 1.92 2.02 2.17